Вернуться в каталог

CZ-6A DEB

АктивенPO
NORAD 61115·DEBRIS·🇨🇳 China

Запущен Aug 6, 2024 с Taiyuan Satellite Launch Center

Loading…

Ближайшие Пролёты (ближайшие 24 часа)

TLE

СвежийSource: Space-Track

Эпоха: Sep 14, 2026, 00:50 UTC

1 61115U 24140PH  26257.03502765  .00001907  00000-0  74564-3 0  9991
2 61115  89.1171 274.8528 0077558 297.2083  62.1222 14.27619540107420

Отслеживайте CZ-6A DEB в реальном времени с AllMySat

Download on the App Store